STARLINK-34428, 64293

Orbit data source: Space-Track

STARLINK-34428, 64293 is a payload satellite owned by SpaceX/Seattle (US) in LEO that was launched on Sun, 08 Jun 2025 UTC via an FALCON 9 launch vehicle from the Air Force Western Test Range (AFWTR). Payload-class satellites include a variety of spacecraft equipped with specific instruments for various scientific and technological missions. These include communications satellites like Starlink; space stations such as the ISS; scientific satellites like the Hubble; Earth observation satellites from companies like Planet Labs, Umbra, and HawkEye 360; GPS; miniature CubeSats for education and research; and military/defense satellites.

Loading next visibility...
Identifier
64293, 2025-123C
Orbit
LEO
Country
Flag of USUS
Related business
Manufacturer
SpaceX/Seattle
Mission
Operational Commercial Communications
Bus & Motor
STARLINK V2MO, Unknown motor
Mass
575 kg wet, ~530 kg dry
Launch date (UTC)
2025-06-08 (10 months ago)
Launch vehicle
FALCON 9
Launch site
Air Force Western Test Range (AFWTR)
Object type
Payload
Rocket body
Debris
Shape & HBR
Box + 2 Pan, 17.7 m
Radar Cross Section
36.964 m², Large (>1 m²)

Expand to show TLE details & history
Last TLE update: 17 hours ago

TLE from 17 hours ago
0 STARLINK-34428
1 64293U 25123C   26093.53915063  .00007927  00000-0  67118-3 0  9990
2 64293  70.0011 131.6902 0003361 271.4225  88.6549 14.98343180 46565
Epoch: 2026-04-03T12:56Z
TLE epoch observation values (Epoch: 2026-04-03T12:56:22.614Z)
Latitude
-0.00003°
Longitude
105.72414°
Altitude
574.385 km
Speed
7.574 km/s
True Right ascension
08h 46m 45s
True Declination
0° 00' 00"
Sunlit
Object was in full shadow at epoch
Visualization orbit readout
Latitude
Unknown
Longitude
Unknown
Altitude
Unknown
Speed
Unknown
Apparent Right ascension
Unknown
Apparent Declination
Unknown
Sunlit
N/A
Visualization observer readout
Local Sidereal Time
11:23:27
Azimuth
Unknown
Elevation
Unknown
Doppler factor
Unknown
Orbital elements
Apogee altitude
572.298 km
Perigee altitude
567.628 km
Semi-major axis
6,948.1 km
Eccentricity
0.00034
Inclination
70.0011°
RAAN
131.6902°
Arg. of periapsis
271.4225°
True anomaly
88.6934°
Mean anomaly
88.6549°
Eccentric anomaly
88.67415°
Mean motion
3.74752 °/min
Orbital period
96.06 mins
BSTAR
0.00067118
Loading maneuver chart data...
Computing Atmospheric mass density...
Loading historical data...
Loading historical data...
Loading historical data...
Loading historical data...
Loading historical data...
Loading historical data...
Loading historical data...

Documentation

Showing up to 5 results
|